Retour au catalogue

QPS-SAR-13

ActifVLEO
NORAD 100243·PAYLOAD·🇯🇵 Japan

Lancé Aug 6, 2026 depuis Rocket Lab Launch Complex 1

Loading…

Prochains Passages (prochaines 24 heures)

TLE

FraisSource: Space-Track

Époque: Sep 14, 2026, 03:59 UTC

1 A0243U 26180A   26257.16641640  .00001518  00000-0  14364-3 0  9992
2 A0243  42.0017 176.6277 0007886 171.9573 188.1379 14.97396097  5820

Suivez QPS-SAR-13 en temps réel avec AllMySat

Download on the App Store